Regional Weather Roundup
Issued by NWS Raleigh/Durham, NC

Home | Current Version | Previous Version | Text Only | Print | Product List | Glossary On
Versions: 1 2 3 4 5 6 7 8 9 10 11 12 13 14 15 16 17 18 19 20 21 22 23 24 25 26 27 28 29 30 31 32 33 34 35 36 37 38 39 40 41 42 43 44 45 46 47 48 49 50
000
ASUS42 KRAH 161910
RWRRAH
NORTH CAROLINA WEATHER ROUNDUP
NATIONAL WEATHER SERVICE RALEIGH NC
200 PM EST MON JAN 16 2017

NOTE: "FAIR" INDICATES FEW OR NO CLOUDS BELOW 12,000 FEET WITH NO
SIGNIFICANT WEATHER AND/OR OBSTRUCTIONS TO VISIBILITY.

NCZ001-053-055-056-065-067-162000-
WESTERN NORTH CAROLINA

CITY           SKY/WX    TMP DP  RH WIND       PRES   REMARKS
ASHEVILLE      CLOUDY    57  48  72 SE6       30.30F
JEFFERSON      CLOUDY    46  46  97 S5        30.30F FOG
MORGANTON      CLOUDY    52  49  90 SE3       30.37F
HICKORY        CLOUDY    50  48  93 E3        30.33F FOG
RUTHERFORDTON  CLOUDY    54  51  90 SE5       30.34F
MOUNT AIRY     CLOUDY    50  45  83 S3        30.36S
BOONE          MOSUNNY   55  48  77 SE3       30.30F
$$

NCZ021-022-025-041-071-084-088-162000-
CENTRAL NORTH CAROLINA

CITY           SKY/WX    TMP DP  RH WIND       PRES   REMARKS
CHARLOTTE      CLOUDY    53  46  77 NE5       30.35F
GREENSBORO     PTSUNNY   50  41  71 S6        30.34F
WINSTON-SALEM  PTSUNNY   53  40  61 S6        30.35F
RALEIGH-DURHAM CLOUDY    51  26  37 CALM      30.38F
FORT BRAGG     CLOUDY    51  38  61 CALM      30.35F
FAYETTEVILLE   CLOUDY    52  40  63 NE6       30.35F
BURLINGTON     CLOUDY    51  38  60 E3        30.35F
LAURINBURG     CLOUDY    53  43  68 N8        30.35F
$$

NCZ011-015-027-028-043-044-047-080-103-162000-
NORTHEASTERN NORTH CAROLINA

CITY           SKY/WX    TMP DP  RH WIND       PRES   REMARKS
ROCKY MT-WILSO CLOUDY    49  37  63 E3        30.39F
GREENVILLE     CLOUDY    50  37  62 CALM      30.39F
WASHINGTON     CLOUDY    50  42  72 NE5       30.39F
ELIZABETH CITY CLOUDY    46  38  73 NE7       30.40F
MANTEO         CLOUDY    47  40  76 NE9       30.39F
CAPE HATTERAS  CLOUDY    50  43  77 N9G17     30.37F
$$

NCZ078-087-090-091-093-098-101-162000-
SOUTHEASTERN NORTH CAROLINA

CITY           SKY/WX    TMP DP  RH WIND       PRES   REMARKS
LUMBERTON      CLOUDY    53  43  68 NE3       30.35F
GOLDSBORO      CLOUDY    51  38  59 N5        30.36F
KINSTON        CLOUDY    52  37  58 NE5       30.38F
KENANSVILLE    NOT AVBL
NEW BERN       CLOUDY    53  41  63 NE5       30.39F
CHERRY POINT   CLOUDY    53  42  66 N6        30.38F
BEAUFORT       CLOUDY    54  44  69 NE9       30.37F
JACKSONVILLE   NOT AVBL
WILMINGTON     CLOUDY    56  45  66 VRB3      30.36F
$$




USA.gov is the U.S. government's official web portal to all federal, state and local government web resources and services.